Wind_Speed
41 41 42 44 46 48 50 52 54 57 59 61 60 58 54 50 48 49 51 51 49 46 45 44 44 43 43 43 43 43 43 43 43 42 41 42 44 45 47 49 50 50 53 59 64 70 75 80 84 89 94 98 102 106 108 109 109 111 113 114 114 112 109 109 110 107 105 106 105 104 102 99 97 93 89 88 84 81 75 70 68 67 64 62 58 55 58
43 44 45 47 50 52 53 54 56 57 59 60 59 56 52 48 46 45 46 47 46 45 45 45 44 42 42 42 42 42 42 42 42 41 40 40 41 42 43 46 49 49 51 56 61 66 72 76 79 85 91 96 100 104 107 108 109 110 111 112 114 113 111 110 111 110 109 110 110 109 106 102 99 95 92 90 86 82 78 75 74 71 66 64 59 58 63
46 48 49 51 53 55 56 56 57 58 57 57 55 52 49 47 44 42 41 42 42 42 44 46 46 44 44 43 43 42 41 41 42 41 40 40 40 40 40 41 45 48 49 53 57 62 68 72 76 80 87 92 97 101 105 107 108 108 110 110 112 114 112 111 113 113 112 112 112 111 108 105 101 98 95 92 89 86 82 79 77 71 66 64 60 62 67
50 52 53 54 55 57 57 57 58 58 56 53 50 48 46 45 43 40 38 38 38 38 40 43 45 45 45 44 43 42 41 40 40 40 39 39 39 38 37 37 41 45 48 50 55 59 65 70 73 77 82 88 94 98 102 106 106 107 108 109 110 113 113 112 114 114 113 112 112 109 107 105 102 100 97 94 92 88 85 82 75 69 67 64 61 65 70
53 55 55 56 57 58 58 58 58 56 53 50 48 46 44 42 40 36 35 36 36 35 36 39 41 43 43 43 43 42 41 40 39 38 37 37 38 37 35 34 37 42 45 48 52 56 62 67 71 74 78 83 89 95 99 103 104 105 106 107 108 111 114 114 114 114 113 113 112 109 107 105 103 101 98 96 93 90 86 81 74 71 69 64 63 70 71
55 56 57 58 59 59 59 58 56 53 50 48 47 45 42 40 37 33 31 32 34 34 35 37 40 41 41 42 42 42 41 41 40 38 36 34 35 34 33 32 34 38 42 46 49 53 58 63 67 70 73 78 84 90 95 99 102 103 104 105 106 109 112 114 114 113 113 114 113 110 107 105 104 103 100 97 93 90 86 80 76 74 70 65 68 74 72
57 58 59 60 60 60 58 56 53 51 49 47 45 43 41 38 36 33 30 29 31 31 33 35 38 40 40 40 40 41 41 40 39 38 36 34 31 31 30 29 31 34 38 42 46 50 54 59 64 67 70 74 79 85 91 95 99 100 101 102 104 106 109 112 114 113 113 113 114 112 108 107 105 104 101 98 94 90 86 82 80 77 72 71 75 77 74
59 60 61 61 61 59 56 53 50 49 47 45 44 42 39 37 35 33 31 31 31 31 32 33 36 38 39 39 39 39 40 40 38 36 36 34 30 28 28 28 28 31 35 39 43 46 49 55 60 63 66 69 74 80 85 90 94 97 98 99 101 104 107 110 112 114 113 113 114 112 109 108 106 104 101 99 95 92 89 87 84 80 77 78 79 78 77
61 62 62 62 60 56 53 50 49 47 45 43 41 40 37 35 34 33 33 32 32 32 32 33 35 37 39 39 39 39 40 40 38 34 32 32 30 26 25 25 25 28 32 35 39 43 46 51 56 60 63 66 70 75 80 84 89 93 95 97 98 101 104 107 110 114 115 114 113 112 110 110 108 104 102 100 97 95 93 90 86 82 81 82 81 80 79
63 63 62 60 57 53 50 49 47 45 43 41 39 37 34 33 32 32 33 33 33 34 34 33 33 36 38 39 40 40 40 39 38 34 30 29 28 24 22 23 23 25 29 32 36 40 43 47 52 56 60 63 66 71 74 78 83 89 92 94 96 99 102 105 109 114 116 115 112 111 111 112 110 105 102 100 98 97 94 90 87 84 84 85 84 81 80
63 63 61 57 54 51 48 47 46 44 42 40 37 34 32 30 30 31 32 34 35 37 37 35 33 34 37 39 41 41 40 38 36 33 29 26 25 21 20 21 21 23 26 29 33 37 40 43 47 51 56 59 62 67 70 72 77 84 88 91 93 97 100 103 107 112 116 115 112 111 112 113 110 105 102 100 98 97 94 90 88 87 87 87 84 82 80
64 62 58 55 52 49 47 45 44 42 40 38 35 32 30 29 28 29 30 33 35 39 39 37 35 35 36 38 41 41 40 38 36 32 28 24 22 19 17 18 19 21 23 26 29 33 36 39 42 47 52 56 59 63 66 69 73 78 83 87 90 95 99 101 105 111 115 115 113 113 113 111 108 105 102 100 98 96 93 91 89 88 89 88 85 83 82
63 59 56 53 51 49 46 43 42 40 38 36 33 30 29 27 27 28 29 31 35 38 39 39 39 37 36 37 40 42 41 40 37 32 27 24 21 17 15 16 17 19 21 23 26 29 33 36 39 44 49 54 58 60 63 66 69 74 79 83 88 94 97 100 104 109 114 115 114 114 112 108 106 104 102 100 98 95 93 91 91 90 90 88 86 85 83
61 57 54 53 50 48 44 42 40 39 37 35 32 29 28 26 25 26 28 30 34 38 39 40 41 41 38 37 39 42 43 41 38 33 27 23 21 17 14 14 15 16 18 21 24 27 30 34 38 42 47 53 56 58 60 64 67 71 75 80 87 94 97 99 104 109 112 114 115 114 111 106 104 102 101 100 98 96 94 93 92 91 90 88 87 85 84
58 55 53 52 49 46 43 40 39 37 35 33 31 29 28 26 25 25 27 29 33 37 39 40 41 43 42 39 38 40 43 42 39 34 28 23 20 17 15 14 14 14 16 19 22 25 28 32 36 40 45 50 53 55 58 63 67 70 72 78 87 94 97 100 104 108 111 113 114 113 110 105 102 100 100 99 98 96 95 94 93 92 90 88 87 86 84
56 54 52 50 47 44 41 39 37 36 34 32 30 28 27 26 25 25 26 28 31 35 38 40 41 43 44 42 39 39 42 43 41 36 29 24 20 17 14 13 13 13 14 16 20 23 27 30 34 38 42 47 50 53 58 63 66 67 69 76 86 94 97 100 104 107 109 111 112 111 108 104 100 99 98 98 98 97 97 95 94 92 91 88 86 85 84
55 53 51 48 45 43 40 38 36 34 32 30 29 28 27 26 25 25 25 26 28 32 36 38 40 42 44 45 42 39 40 42 42 38 32 27 22 18 15 12 12 12 12 14 17 21 25 29 32 36 40 45 49 53 59 62 63 64 67 74 85 93 98 101 104 106 108 109 110 109 106 102 100 98 96 97 98 98 98 97 95 93 91 88 86 85 84
55 52 49 46 43 41 39 37 35 33 31 29 28 27 27 25 25 25 25 26 27 30 33 37 39 41 43 45 45 41 39 40 41 40 35 29 24 20 16 12 11 10 10 13 16 19 23 27 31 34 37 42 47 52 56 59 60 62 66 74 84 94 99 102 104 106 107 108 107 107 104 101 100 97 95 96 98 99 99 98 96 93 90 88 86 84 83
53 50 47 44 41 40 38 36 34 33 31 29 28 27 26 24 24 24 25 26 26 28 31 34 37 38 41 44 45 44 40 39 40 40 37 31 26 22 18 14 11 9 9 11 14 18 21 25 28 31 34 39 45 50 54 56 57 60 66 75 86 94 99 102 104 105 106 106 105 104 102 100 100 98 95 95 97 98 99 99 96 92 90 88 86 84 82
52 48 45 43 40 38 37 35 33 32 30 29 29 27 25 24 23 23 24 25 26 27 29 32 34 36 38 41 44 45 43 40 39 40 39 34 29 25 20 15 11 8 7 8 12 16 19 22 25 29 33 38 44 48 51 53 56 59 66 76 85 93 98 102 103 104 105 105 104 103 101 100 100 97 93 93 94 96 97 97 95 91 88 86 85 84 81
51 46 43 42 40 37 36 34 33 31 30 29 29 27 24 22 21 21 22 23 25 25 27 29 32 34 36 38 42 44 44 41 39 38 39 37 32 27 22 16 11 8 6 6 9 13 15 18 22 26 31 36 42 45 49 51 54 59 68 77 84 91 97 102 104 105 104 104 103 101 99 99 99 94 88 87 91 93 94 94 93 91 88 84 82 83 81
50 46 42 41 39 37 35 33 32 30 29 29 28 26 22 20 20 20 21 23 24 24 25 27 30 32 34 37 40 42 43 42 39 37 37 36 34 29 24 18 12 8 5 4 6 9 12 15 20 25 29 35 39 42 46 49 53 60 69 77 84 90 97 102 104 105 104 103 102 99 97 98 98 93 85 81 83 89 92 92 91 91 89 84 80 79 80
49 46 42 39 38 36 34 33 31 31 29 29 27 24 20 19 19 19 20 22 23 24 25 27 28 30 32 34 37 40 41 41 39 37 36 35 33 30 25 20 14 9 5 2 4 7 11 15 19 24 29 33 36 39 43 47 53 61 70 77 83 90 97 101 104 105 104 102 100 98 97 98 96 92 87 81 80 84 88 90 89 89 89 86 79 76 78
49 46 42 38 36 35 34 32 31 31 30 28 26 23 20 19 19 19 20 21 22 24 25 27 27 28 29 30 33 36 38 38 38 38 36 35 33 31 27 22 16 11 6 3 2 7 12 16 19 23 28 30 33 37 40 45 52 61 69 76 82 89 96 101 104 105 103 102 100 97 97 98 95 92 88 82 78 79 83 86 87 86 87 86 81 77 77
48 46 42 38 35 34 33 32 31 30 29 27 25 23 21 20 19 19 20 20 21 23 24 25 26 26 27 28 29 31 33 35 36 38 37 35 33 32 29 24 19 13 8 5 2 6 12 17 20 23 27 29 32 35 38 44 52 60 68 74 80 87 95 100 103 104 103 102 100 97 96 97 96 92 88 82 74 72 75 81 83 81 83 86 85 80 77
47 45 42 39 35 33 32 32 32 31 29 28 27 25 24 23 19 18 18 20 21 22 22 23 25 25 25 26 27 28 29 31 32 34 36 35 33 32 30 27 22 16 10 5 3 5 11 16 20 23 25 27 30 33 37 43 50 59 67 73 79 86 94 99 102 104 102 101 99 96 96 97 95 92 90 83 72 66 68 74 78 79 79 82 83 82 79
46 44 42 39 36 33 31 31 30 30 29 29 28 27 28 26 22 18 18 21 22 22 22 23 24 24 23 24 25 26 28 29 29 30 33 34 34 32 30 28 24 18 12 6 4 5 9 15 18 21 22 24 27 31 35 41 49 58 66 72 77 84 92 98 101 102 101 101 99 96 96 97 95 92 88 80 71 67 66 68 73 77 79 78 80 81 80
45 43 41 39 36 34 31 30 29 29 29 29 28 28 29 29 25 21 20 21 22 22 23 23 24 24 24 24 24 24 25 26 26 27 29 31 32 32 31 29 25 19 12 7 4 4 8 12 16 18 20 21 24 27 31 39 48 58 66 72 77 84 91 97 100 101 101 100 98 96 96 96 94 92 88 79 70 67 65 64 67 74 78 77 77 79 80
44 42 41 39 36 34 31 30 28 28 27 27 27 28 28 28 28 26 24 23 23 23 23 23 24 24 24 24 23 22 22 23 24 24 26 28 30 31 30 28 25 20 15 9 5 3 7 10 13 16 18 20 22 25 29 36 47 58 66 72 77 83 90 95 98 100 100 99 97 96 96 95 93 93 91 83 74 68 64 61 63 69 75 77 76 78 80
43 41 40 38 36 34 32 31 29 27 26 26 26 26 26 26 27 26 26 24 23 23 23 23 23 24 24 23 22 21 20 20 20 21 21 23 25 27 27 26 25 22 18 12 6 3 5 8 12 15 18 21 22 25 28 34 44 56 66 72 77 83 88 93 97 99 99 99 98 97 96 96 94 93 91 87 80 72 66 63 62 65 70 75 76 75 76
42 40 38 35 34 33 32 31 30 29 28 27 26 26 26 26 26 26 26 25 23 22 22 21 21 22 22 21 20 19 17 16 16 17 17 18 20 22 24 24 24 23 20 14 8 3 3 7 10 14 19 22 23 25 27 31 40 52 64 71 76 82 87 92 95 98 98 98 98 98 98 96 94 93 91 87 83 77 71 68 66 65 68 73 76 75 74
42 39 36 35 34 35 35 33 32 31 31 30 30 29 29 28 28 27 26 25 24 23 22 21 20 20 20 20 19 18 16 15 14 14 15 15 16 18 20 21 22 21 20 15 9 4 3 5 8 12 17 22 24 26 28 30 36 48 60 69 74 80 85 90 94 96 98 98 98 99 98 96 94 93 91 87 84 81 76 72 69 68 69 73 77 76 74
42 40 38 38 38 38 38 36 35 34 32 31 30 30 29 28 27 27 27 26 25 24 23 22 22 21 20 20 19 18 17 15 13 13 13 13 14 15 16 18 19 19 19 16 12 6 3 5 8 10 14 19 24 27 29 31 35 43 55 65 71 77 83 88 92 94 96 97 98 98 98 96 95 94 92 88 85 83 79 74 71 68 69 73 77 77 74
42 40 39 38 37 35 33 31 29 28 27 26 26 27 28 28 28 28 28 27 26 25 24 23 22 22 21 20 19 18 17 15 13 12 12 12 12 13 13 14 16 17 17 16 13 8 3 4 7 10 13 17 22 27 30 32 35 40 49 59 68 74 80 86 90 93 95 97 97 97 97 97 96 96 94 89 85 83 80 76 73 70 68 71 77 79 77
40 39 38 36 35 33 32 31 30 29 29 29 30 31 31 31 30 29 28 27 27 26 25 24 23 22 21 20 19 18 17 15 13 11 11 11 11 11 11 11 12 13 14 14 13 8 3 3 6 10 13 16 20 26 31 34 36 38 44 53 63 71 78 83 88 92 94 96 97 97 97 97 96 96 95 90 86 84 81 78 75 73 71 71 73 78 80
39 37 36 35 34 34 34 34 34 33 33 32 31 31 30 29 29 28 28 28 27 27 27 26 24 23 22 20 19 18 16 15 13 11 10 9 9 9 9 9 9 10 10 10 10 9 5 2 5 10 13 16 19 24 30 34 37 39 42 48 57 67 75 81 87 91 94 96 98 98 98 97 96 96 95 91 88 86 83 79 77 77 76 74 73 75 81
37 36 35 34 34 34 33 34 33 33 32 31 31 30 29 29 29 29 30 30 30 30 29 28 26 24 23 21 19 18 17 16 14 12 11 9 9 9 8 8 7 8 8 8 8 7 5 2 3 8 13 16 19 23 28 34 39 42 44 46 52 61 71 79 85 89 93 96 98 99 99 98 97 97 96 93 90 89 87 83 81 80 80 78 76 77 81
37 36 35 35 35 34 34 34 33 33 33 32 31 31 31 31 32 32 33 33 33 32 32 30 29 27 25 23 21 19 18 17 15 14 13 11 10 9 9 8 8 7 7 6 5 4 3 2 2 6 11 16 19 22 27 33 39 44 46 47 49 56 65 75 84 89 92 96 99 100 100 100 98 98 98 96 93 93 92 89 86 85 84 82 80 79 82
37 37 36 36 36 36 36 36 36 36 36 35 35 35 36 36 36 36 36 36 35 34 33 32 31 30 28 25 22 20 18 17 16 15 14 13 11 10 9 9 9 9 8 7 6 4 1 1 3 4 8 14 19 23 25 30 36 42 47 49 50 53 59 69 80 88 92 95 99 100 101 101 100 100 101 100 98 96 97 95 92 89 88 87 84 81 82
37 37 38 38 39 39 39 40 40 39 39 38 38 39 39 39 38 38 38 38 37 36 35 33 32 31 29 28 25 22 20 18 17 15 14 14 13 12 11 10 10 10 10 9 8 7 5 4 6 7 8 12 17 22 25 28 33 40 47 52 54 55 56 62 72 83 90 95 98 101 101 102 101 101 103 104 102 101 102 101 98 94 93 92 90 87 85
38 39 39 40 40 40 40 39 38 38 37 37 38 38 38 38 38 38 38 37 36 36 35 34 33 32 30 29 28 25 23 20 18 16 15 14 13 13 13 12 11 11 11 12 11 11 10 9 8 10 10 12 15 20 25 29 31 36 44 52 57 60 60 60 65 76 87 94 97 100 102 103 103 103 104 106 106 105 105 105 104 101 98 97 96 94 92
40 40 39 38 38 37 37 36 36 36 36 36 36 36 36 36 36 36 36 35 35 35 34 33 32 32 31 29 28 27 25 23 20 18 16 14 14 13 14 13 13 13 13 13 14 14 14 13 12 12 13 14 15 18 23 28 31 34 39 47 55 62 66 66 66 72 83 93 98 100 102 104 105 105 105 107 108 108 108 108 108 106 103 102 102 101 99
38 37 36 36 35 35 36 36 36 37 37 37 37 37 36 36 36 35 34 34 33 33 32 32 32 31 31 31 30 29 27 25 23 20 17 15 14 13 14 14 14 14 14 15 16 16 17 16 16 15 15 15 16 18 21 25 30 33 37 42 49 57 66 71 72 73 80 89 98 102 104 105 106 107 106 107 108 109 110 110 111 110 108 107 107 107 106
36 36 35 35 35 36 36 36 37 37 38 38 38 37 37 37 36 36 36 35 34 32 31 31 30 30 30 30 30 29 28 27 25 23 20 17 15 14 13 14 15 16 16 17 18 19 19 19 19 19 19 18 18 19 20 23 27 31 35 38 43 49 57 65 72 76 81 88 96 103 106 107 108 109 109 108 109 110 111 112 113 113 112 111 111 111 111
36 36 35 35 35 36 36 37 37 38 37 37 37 37 37 37 37 36 36 36 35 33 32 31 30 29 29 29 29 29 29 28 27 26 24 21 18 16 14 14 14 16 17 18 19 20 22 22 22 22 22 22 21 21 22 23 25 29 32 36 39 44 50 56 64 72 78 85 93 100 106 108 109 110 110 110 110 110 111 113 114 116 116 116 115 115 114
36 35 35 36 36 36 37 37 38 38 38 38 38 38 38 37 37 36 36 36 36 35 34 34 32 31 29 29 28 29 29 29 28 27 26 24 21 18 16 15 15 16 17 19 20 22 23 24 24 24 25 25 25 25 25 25 26 27 30 34 37 41 46 50 56 62 69 76 84 93 100 106 109 111 111 112 112 112 112 113 114 116 117 119 119 118 118
35 35 36 37 37 37 37 37 38 39 39 39 40 40 40 39 37 36 35 35 36 36 36 36 35 33 31 30 29 29 29 29 28 27 25 24 23 21 19 18 17 17 17 18 20 22 23 25 26 26 27 27 28 28 28 28 28 29 30 32 36 39 43 47 50 55 60 66 73 81 90 97 103 108 111 113 114 114 114 114 114 115 116 118 120 120 121
32 32 34 36 38 38 38 37 38 38 40 40 41 41 41 40 39 38 37 37 38 38 39 38 37 36 35 33 32 30 29 29 28 26 25 23 21 20 19 19 19 19 19 19 20 21 23 24 26 27 28 29 30 31 31 32 32 32 32 32 35 38 41 44 47 51 54 58 63 69 77 85 93 100 105 109 112 113 114 115 115 116 116 117 119 120 121
31 30 30 32 35 37 38 38 38 38 39 41 42 43 43 42 42 42 42 42 41 41 41 40 39 38 37 34 32 30 28 28 27 27 25 23 20 18 17 17 18 19 20 20 20 21 22 23 25 27 29 30 30 31 33 35 35 35 35 35 36 37 39 42 45 48 51 54 57 61 66 72 80 88 95 101 106 109 110 112 113 115 116 118 119 120 121
31 29 29 30 32 34 36 38 40 40 41 43 44 46 46 47 47 47 46 46 45 45 43 41 40 39 36 34 31 30 29 29 29 29 28 26 23 21 19 17 17 17 18 19 20 21 22 23 24 26 28 30 31 32 34 36 37 38 38 38 38 39 40 41 43 45 48 51 54 56 60 63 68 75 82 89 96 101 105 108 110 111 114 116 118 120 121
32 33 33 34 34 35 36 38 41 43 45 46 47 48 49 50 50 50 49 49 50 49 47 45 43 41 38 37 36 36 35 34 33 32 31 30 28 25 22 19 18 17 17 17 18 20 22 23 23 25 27 29 31 32 34 36 37 39 40 40 40 41 41 42 43 44 45 47 49 52 55 58 61 66 71 77 83 89 95 101 105 108 111 113 116 118 120
33 35 37 37 38 38 38 39 41 43 45 48 49 50 51 51 50 50 51 51 51 50 49 47 45 44 42 42 42 41 40 39 37 36 35 33 32 28 25 22 19 18 17 17 17 19 21 23 23 24 26 28 30 32 33 35 37 39 41 41 42 42 43 43 44 44 45 46 47 49 51 53 56 60 64 68 73 78 84 89 95 100 105 109 113 115 117
Wind_Direction
322 322 321 320 319 318 317 317 316 314 312 312 312 312 313 313 312 310 308 307 307 306 305 303 302 302 302 301 300 298 295 293 289 284 278 271 265 260 256 255 251 245 239 236 233 232 231 229 226 225 224 224 223 223 224 224 223 223 222 221 220 220 217 216 219 220 219 220 220 220 220 221 223 222 222 222 222 223 223 221 222 222 220 220 222 223 225
325 324 323 322 321 320 318 317 315 314 313 313 313 314 315 315 314 312 310 309 309 309 308 306 306 306 306 306 305 303 301 298 295 290 284 276 269 262 256 253 251 247 240 236 233 232 232 230 227 225 224 223 223 222 223 223 223 222 222 221 219 219 217 215 217 218 218 218 219 219 219 219 221 222 221 222 222 222 221 220 220 219 218 218 218 221 225
326 325 325 324 322 320 318 317 316 315 315 314 314 316 317 316 315 314 311 310 310 312 312 311 311 312 312 311 310 308 305 302 298 294 288 281 274 266 259 253 250 248 242 237 233 231 231 230 227 225 224 223 222 221 221 222 222 221 221 220 218 218 216 215 215 216 217 218 219 219 219 219 220 221 221 222 221 221 220 220 220 219 218 218 217 222 227
328 327 325 324 321 319 319 319 318 317 317 316 316 317 317 316 316 316 313 311 311 312 313 313 314 315 315 314 313 310 307 304 300 296 291 285 278 271 264 257 250 247 243 238 233 230 230 230 228 225 223 223 222 221 221 221 222 221 220 219 217 216 216 215 215 216 216 218 220 220 220 220 219 220 220 221 221 221 220 220 219 218 219 218 218 223 227
328 326 324 323 322 321 321 321 320 319 318 318 318 318 318 318 318 318 316 313 312 312 313 313 314 316 316 316 316 314 311 307 303 299 294 288 281 274 268 261 252 246 242 238 234 231 228 229 228 226 224 223 222 221 221 221 221 220 220 219 217 215 215 214 215 215 215 217 219 219 219 219 219 220 220 220 221 221 221 220 218 218 219 218 220 226 227
327 326 325 324 323 323 323 322 321 320 320 320 320 319 319 319 318 318 317 314 313 315 315 316 317 318 319 320 321 320 317 313 309 304 298 291 284 278 270 261 253 247 242 239 235 231 228 228 228 227 224 223 222 222 221 220 220 220 219 218 216 215 214 213 214 215 215 216 218 218 218 218 219 219 219 220 220 221 221 220 218 218 217 217 221 226 227
327 326 326 325 324 324 324 323 322 322 321 321 320 320 321 320 319 320 319 317 317 317 318 319 321 322 324 326 327 326 322 318 314 309 303 296 288 281 274 264 254 248 243 239 236 232 229 227 227 227 225 223 222 222 221 220 220 220 218 217 216 214 213 212 212 214 215 215 216 217 217 217 218 218 218 219 220 220 220 219 218 217 216 217 221 225 225
328 327 326 326 325 325 325 324 323 323 322 322 321 322 322 322 321 322 324 324 323 323 323 324 325 326 328 330 331 330 327 322 317 314 309 301 292 284 277 267 256 249 243 238 236 233 229 227 226 226 225 223 222 222 221 220 219 219 218 217 215 213 212 211 211 213 215 215 216 216 216 217 217 217 217 217 218 218 218 218 218 216 215 217 221 223 224
329 328 327 326 326 326 325 324 323 323 323 322 323 323 323 323 323 325 327 327 327 328 328 328 329 331 332 333 334 334 332 327 321 316 312 305 296 288 280 270 259 250 244 239 235 233 229 226 225 225 224 223 221 221 221 219 218 218 217 216 214 212 211 210 210 212 214 214 214 215 215 216 217 216 216 216 216 217 217 217 217 216 216 219 221 222 223
329 328 328 327 326 326 326 325 324 324 323 323 324 323 324 324 324 326 329 329 331 333 332 331 333 335 337 338 339 338 336 332 325 320 316 307 298 292 284 275 264 253 246 240 236 233 229 226 223 223 223 222 220 221 221 219 217 217 217 215 213 211 211 209 208 211 213 214 214 214 214 215 216 215 215 215 215 216 216 216 216 217 217 220 221 222 223
330 330 329 328 327 328 328 326 325 324 324 324 324 323 323 323 323 327 331 333 336 337 334 333 335 340 343 344 343 342 339 335 329 324 321 311 301 296 289 279 268 256 248 241 237 233 230 227 223 221 222 221 219 219 219 218 216 216 215 213 211 210 210 208 207 209 213 213 213 213 213 214 215 214 214 214 215 215 215 215 216 217 218 220 221 222 223
331 330 329 328 329 330 330 327 325 325 324 323 324 323 323 323 324 329 333 337 339 337 335 336 338 342 347 348 347 345 342 339 334 330 327 318 306 301 296 285 271 259 250 242 238 234 230 227 223 220 220 220 218 218 217 216 215 214 214 211 209 209 209 207 206 208 212 213 212 213 213 214 214 214 213 214 215 215 215 214 215 216 218 220 221 222 223
332 331 330 330 331 331 330 328 325 325 324 323 323 323 323 324 326 330 336 340 340 337 337 339 341 343 347 350 350 349 346 343 339 335 333 326 313 306 303 291 276 262 252 243 238 234 229 225 221 217 216 217 217 215 215 214 212 212 211 208 206 207 208 206 204 207 211 212 212 213 213 213 213 213 212 213 214 214 214 214 214 216 218 219 220 222 223
332 332 332 332 332 332 330 328 326 325 324 323 322 322 323 325 329 333 338 342 340 338 339 343 343 343 346 351 354 354 351 348 344 341 340 334 322 314 311 300 283 266 253 242 236 232 228 223 219 215 213 215 214 212 211 211 209 209 207 204 203 205 206 204 203 206 210 211 211 213 213 212 211 211 211 212 213 213 214 214 214 215 216 218 219 221 223
333 333 333 333 332 331 330 328 327 325 324 322 321 322 323 327 332 335 339 342 341 339 341 344 344 344 345 349 355 358 355 352 349 346 346 343 333 323 318 310 291 271 254 242 234 229 225 221 217 213 212 212 212 209 207 208 207 206 203 200 201 203 203 202 202 205 209 210 211 212 212 211 210 210 211 211 212 213 214 214 214 214 215 217 218 220 222
335 335 334 333 331 330 330 329 327 326 324 322 321 321 323 328 332 334 337 341 341 340 342 344 345 346 346 347 353 359 360 357 354 352 351 349 343 333 325 317 299 277 257 244 234 227 223 219 215 212 210 209 208 206 205 206 206 203 200 197 198 200 201 200 201 204 208 209 211 212 211 210 209 209 210 210 211 212 213 214 214 214 215 215 217 219 221
336 335 334 333 331 330 330 330 328 326 325 323 321 320 322 327 331 331 334 338 340 341 342 343 344 346 346 347 350 357 2 2 359 357 356 356 352 342 334 325 309 286 263 246 234 226 222 217 213 210 208 206 205 204 204 205 203 200 196 194 196 198 199 198 200 203 206 208 210 210 209 208 208 208 209 209 209 211 212 213 213 213 214 214 215 218 219
337 336 334 333 332 331 332 331 329 327 326 324 321 321 323 327 329 328 330 334 338 341 342 341 343 345 347 347 348 353 1 6 5 2 1 1 359 351 343 336 322 297 270 249 234 224 220 216 212 208 206 204 204 204 204 204 201 196 193 192 194 197 197 197 198 202 205 207 208 209 207 206 206 206 207 208 209 209 211 212 212 212 213 213 215 216 219
338 337 335 334 333 333 332 332 330 329 327 324 322 322 325 328 329 328 329 330 333 339 340 339 340 343 346 348 348 350 357 5 9 7 4 5 5 360 351 344 335 314 278 250 233 223 218 215 210 206 204 203 203 204 204 202 198 194 190 190 193 195 196 196 197 201 204 206 207 207 205 204 205 205 205 208 209 209 210 212 212 212 212 212 214 216 218
338 338 336 335 334 334 333 333 332 330 329 326 323 325 329 332 333 333 331 329 330 334 337 336 337 340 345 348 349 350 353 1 10 12 9 8 8 5 358 350 345 330 291 253 234 223 216 212 208 203 201 202 203 203 202 200 196 190 188 190 193 194 194 195 197 200 203 204 205 205 203 203 204 203 204 207 209 210 211 212 211 211 211 211 212 214 217
339 340 338 336 335 335 334 333 333 332 330 327 325 328 333 337 338 337 334 332 330 331 332 333 334 338 343 346 348 349 350 356 5 13 14 11 9 9 4 357 354 346 313 262 236 224 214 209 206 203 201 202 203 203 201 198 193 187 186 190 192 193 193 194 196 199 202 203 204 203 201 202 203 201 203 207 209 209 210 211 210 211 211 210 211 213 215
340 341 340 337 335 335 334 334 334 332 330 328 329 332 338 341 341 340 337 337 336 332 331 332 333 337 341 343 346 348 349 351 359 9 16 15 13 12 10 4 2 1 341 283 238 219 208 204 203 202 202 203 204 202 200 195 189 185 187 190 191 191 193 194 196 198 200 202 202 201 199 201 201 200 201 205 207 208 209 209 209 210 210 209 210 211 213
341 342 341 339 336 335 335 335 334 333 332 332 334 337 340 341 340 339 338 340 339 336 334 333 332 334 339 341 344 345 346 349 355 3 12 17 16 16 16 12 11 13 12 327 239 207 196 197 201 202 203 204 203 202 199 193 187 185 188 190 191 191 192 193 195 198 199 200 200 199 198 200 199 198 200 204 206 208 209 208 209 210 209 208 208 210 212
342 342 342 341 338 336 336 336 336 336 337 338 338 338 336 334 333 333 334 336 336 337 337 335 333 334 337 340 343 343 344 348 353 359 7 14 18 19 19 18 17 20 29 34 213 199 190 191 197 202 203 203 202 201 197 191 187 186 188 191 190 191 192 193 195 198 198 198 198 197 198 199 197 196 199 202 204 207 209 208 207 208 208 207 207 208 210
343 342 343 343 341 339 338 338 338 339 340 340 339 335 329 324 322 323 326 329 331 333 336 336 336 338 339 341 342 342 343 348 352 356 1 9 16 19 21 21 21 23 31 53 121 190 193 192 195 200 202 200 199 199 194 189 186 186 189 191 191 191 192 193 195 197 197 197 197 196 197 198 197 195 197 199 201 205 208 208 206 206 207 208 207 206 207
344 343 343 344 344 343 341 340 340 341 342 342 341 336 330 327 326 324 323 325 326 328 331 333 335 338 341 341 340 340 344 348 352 354 357 3 11 17 21 21 21 23 29 50 107 170 195 199 198 199 200 199 197 196 193 188 185 185 188 191 191 191 192 193 195 197 197 196 195 195 197 198 196 195 197 198 199 202 206 207 205 204 205 207 207 206 206
345 345 345 346 347 346 345 343 342 341 342 343 343 340 336 337 342 338 326 321 322 324 326 328 331 335 338 338 339 341 344 346 349 352 355 359 6 13 19 22 21 20 24 42 93 156 191 202 202 198 198 199 197 195 191 186 183 184 188 191 191 191 192 193 195 196 196 196 195 194 197 199 196 194 196 197 197 198 202 204 203 202 203 204 205 205 205
346 346 347 348 348 348 348 346 345 344 344 345 346 345 343 344 348 345 334 325 323 323 324 325 327 331 333 335 338 340 341 341 345 350 354 358 2 7 13 19 21 20 24 38 75 147 184 200 203 199 196 195 196 195 191 185 181 182 187 190 191 191 193 194 195 196 196 196 195 194 197 199 196 194 195 195 194 195 198 201 202 201 201 201 203 204 204
347 348 349 349 349 349 350 350 348 347 348 347 348 348 347 347 349 349 344 338 332 329 328 327 327 328 329 332 334 336 337 337 341 347 352 356 359 1 6 14 20 23 26 35 58 128 176 192 200 198 191 188 191 193 193 187 181 182 187 190 191 191 193 194 195 195 195 195 194 195 197 198 196 195 195 194 192 193 195 197 200 201 200 199 201 203 204
350 350 350 349 349 351 352 352 352 352 351 351 350 350 350 351 351 351 350 348 343 338 335 332 328 326 326 328 329 330 331 333 336 342 348 353 355 356 1 10 19 23 25 28 45 97 166 184 193 193 185 182 185 189 191 188 182 182 186 190 191 192 193 194 195 195 195 195 194 195 197 198 197 196 196 194 192 191 190 192 197 200 199 199 200 202 203
353 352 350 349 351 354 355 355 355 354 354 354 354 354 354 354 354 354 354 355 353 349 343 337 331 327 325 324 325 327 328 329 331 334 341 349 353 354 358 6 15 22 23 23 35 72 154 178 189 191 184 179 181 185 187 185 182 182 187 190 192 192 193 194 195 195 195 195 194 195 197 198 197 197 197 195 193 191 190 192 196 197 198 198 199 200 201
354 353 351 353 356 358 359 358 358 358 357 357 357 357 357 356 355 355 356 357 357 355 352 347 341 335 331 329 329 330 329 328 329 330 335 345 352 354 356 2 11 20 24 23 29 53 131 172 188 193 187 181 179 182 184 183 181 182 187 191 192 193 193 194 195 195 195 195 195 196 198 197 197 197 197 194 193 192 191 193 195 196 196 196 196 197 201
354 354 355 359 2 2 0 358 357 357 357 356 355 355 355 355 355 355 356 357 357 357 356 354 350 346 342 338 335 334 332 331 330 330 332 340 349 353 356 359 5 16 23 26 28 41 95 167 187 195 193 187 182 180 182 182 180 181 187 192 194 193 194 194 195 195 195 195 195 197 198 197 197 197 196 193 192 193 193 193 194 194 195 194 193 194 199
356 356 359 2 3 3 1 359 357 354 353 352 353 355 357 357 358 359 359 359 359 359 359 358 355 351 349 345 342 339 336 333 332 331 330 334 342 348 352 356 360 8 19 25 27 31 68 158 181 193 197 195 189 184 182 182 179 179 186 192 195 195 194 195 195 195 195 196 196 197 199 198 197 197 197 194 192 193 193 193 192 192 193 194 194 194 196
358 359 1 2 3 2 2 3 3 1 359 359 0 1 1 1 1 1 2 3 3 2 1 1 358 354 351 350 347 344 339 334 332 331 327 327 332 339 344 350 354 360 9 18 23 28 55 145 178 192 198 199 197 191 186 183 180 179 183 190 195 196 196 195 196 196 196 196 197 198 199 200 198 198 198 195 192 191 192 193 191 190 192 195 196 196 196
360 1 2 3 4 4 5 6 7 5 5 5 4 3 2 2 3 4 6 6 7 6 5 4 2 358 355 353 350 348 344 339 334 329 323 321 325 328 332 338 345 349 356 6 18 28 42 111 177 191 195 199 201 198 192 187 183 181 180 186 193 197 197 196 196 196 196 196 197 198 200 200 199 199 198 196 192 190 191 192 191 190 192 195 196 197 197
2 3 4 5 6 7 8 8 8 7 6 6 5 4 4 5 5 7 8 8 8 7 6 5 4 2 359 357 354 351 348 344 339 333 326 321 319 319 320 321 325 333 341 351 8 23 31 56 180 190 194 197 201 202 198 193 189 184 181 182 189 195 197 197 197 197 197 197 198 199 200 201 200 199 199 197 194 191 192 192 191 191 193 195 197 198 198
4 6 7 9 11 12 13 13 12 11 10 10 9 8 9 10 10 10 10 9 8 6 4 3 3 3 1 359 357 354 350 347 343 336 330 323 315 309 307 307 307 309 315 322 337 0 22 48 167 194 198 198 199 201 202 199 195 189 183 181 184 191 196 198 198 198 198 198 199 200 200 201 201 200 199 198 196 193 192 192 192 193 194 196 198 199 200
9 11 13 15 16 17 18 18 17 16 15 14 13 13 13 14 13 13 11 9 7 5 3 2 1 0 358 358 357 356 353 349 344 338 333 327 320 310 302 296 293 291 288 288 292 296 288 166 168 193 202 202 200 199 201 203 200 194 187 184 183 187 192 197 199 200 199 199 200 201 202 202 201 201 199 199 197 195 193 193 193 193 195 197 200 201 202
14 15 17 18 19 19 19 19 17 16 15 14 13 14 15 14 14 13 13 10 7 4 3 1 359 357 356 355 355 355 354 351 347 341 335 328 322 315 306 294 286 281 275 271 269 267 255 221 194 191 199 206 205 202 199 200 202 199 193 188 185 185 188 193 198 201 201 201 200 201 203 204 203 202 201 200 199 197 195 195 195 194 195 197 200 202 203
16 17 18 19 18 18 18 17 15 14 13 12 12 14 14 14 13 13 12 10 6 4 2 1 358 356 355 353 352 351 351 349 346 342 336 329 322 315 307 296 286 277 269 264 262 259 254 241 218 202 196 200 206 207 203 200 200 202 200 195 190 186 185 188 193 198 202 203 203 202 203 204 205 205 204 203 201 200 199 198 197 196 196 196 198 200 202
16 16 17 17 15 14 14 13 11 10 10 10 10 12 13 13 13 13 11 8 5 2 1 359 356 354 353 352 350 349 347 344 341 338 334 328 321 312 304 296 287 276 267 262 260 258 254 248 238 222 208 201 202 207 208 204 201 200 202 202 197 192 188 187 189 193 198 202 204 205 205 206 206 207 206 206 204 203 203 202 200 199 198 198 198 200 201
14 13 12 12 10 10 10 9 8 6 7 7 8 10 10 10 11 11 9 6 3 1 359 356 354 353 352 350 349 347 344 340 336 333 330 325 318 310 302 294 286 278 268 260 256 254 252 249 243 235 225 215 208 206 208 209 205 201 201 203 204 201 196 192 190 191 194 199 203 205 206 207 208 208 209 208 208 207 206 205 204 203 202 201 200 201 201
7 6 7 8 7 7 7 7 6 6 6 6 6 6 6 6 7 8 6 3 1 359 357 355 353 351 349 347 345 343 340 337 334 331 328 323 317 308 299 289 281 276 270 261 254 251 249 248 244 238 232 227 221 214 210 210 210 207 203 202 203 205 204 201 197 195 194 196 200 204 207 208 209 209 210 210 210 209 209 208 208 207 206 205 203 203 203
1 2 4 6 5 5 4 4 4 4 4 3 2 2 3 3 4 4 2 0 358 356 355 354 353 351 348 345 341 338 336 334 333 329 325 321 315 308 298 287 278 272 268 262 257 252 248 245 243 239 234 230 227 222 218 214 212 211 209 206 204 204 206 206 204 203 201 200 200 202 205 207 209 210 211 211 211 211 211 211 211 210 210 209 208 207 206
357 358 0 2 2 2 1 1 0 360 0 0 0 360 360 0 360 359 359 358 357 355 355 354 353 351 348 344 340 337 333 331 328 325 321 318 314 308 300 292 283 275 268 263 258 254 250 246 243 240 236 233 229 226 223 220 217 214 212 211 209 208 208 208 209 209 209 207 205 205 205 207 209 210 211 212 213 213 213 214 214 213 213 213 212 211 210
353 354 356 357 357 357 357 357 356 356 357 358 359 358 357 356 354 354 354 354 354 355 355 354 353 351 348 345 341 336 329 324 322 320 318 316 313 309 304 297 290 282 274 267 260 255 253 249 245 241 238 234 232 229 226 224 221 219 216 214 214 213 211 211 211 212 212 212 211 210 210 210 211 211 212 213 213 213 214 215 215 216 216 216 216 216 215
352 352 353 353 352 352 353 354 354 354 355 355 356 356 354 351 349 350 351 352 354 355 355 354 352 350 348 345 340 333 325 320 319 317 314 311 308 304 300 296 291 285 278 272 266 259 253 250 247 244 240 236 233 231 230 227 224 221 219 217 217 217 215 214 213 214 214 214 214 214 213 214 215 216 216 216 215 215 214 214 215 217 218 218 219 219 219
354 353 351 350 350 351 352 352 352 352 353 353 354 354 352 350 350 351 351 352 354 355 354 353 351 349 346 342 335 328 323 321 320 318 316 314 311 307 302 296 290 284 278 273 269 263 256 251 247 244 242 238 234 231 231 230 229 225 221 218 218 219 219 217 216 215 215 216 216 216 216 216 216 218 219 220 220 219 218 217 216 216 218 219 220 221 221
355 354 353 352 352 353 352 352 352 352 353 353 353 352 352 352 352 352 352 353 353 353 352 352 349 346 342 339 335 332 331 330 329 327 327 326 323 321 317 310 298 288 279 272 268 264 259 254 248 244 242 240 237 233 230 230 230 229 226 222 219 219 220 220 219 218 217 217 217 217 217 217 217 217 219 221 222 223 222 222 221 220 219 220 221 222 223
357 356 356 355 354 353 353 353 354 354 354 354 353 352 352 352 352 352 352 353 352 351 350 349 348 345 343 342 342 341 340 339 337 335 333 331 328 325 322 317 308 296 285 275 267 262 259 256 251 246 242 240 238 234 231 229 230 230 230 227 224 222 221 221 221 221 221 220 219 218 218 218 218 218 218 219 221 222 223 224 224 224 224 223 223 223 224
358 357 356 354 353 353 354 354 354 355 355 354 353 352 352 351 350 351 352 352 351 349 348 347 346 345 345 346 345 344 342 341 340 338 335 331 328 325 323 320 314 304 292 281 271 263 259 256 253 249 243 239 238 236 233 229 228 229 230 229 228 226 224 222 222 222 222 222 221 220 220 219 219 219 219 219 220 221 222 223 225 226 227 227 227 227 227
Height
10613 10610 10607 10602 10598 10593 10589 10584 10579 10573 10567 10560 10556 10553 10551 10549 10543 10534 10526 10520 10517 10515 10511 10507 10504 10502 10498 10493 10489 10486 10482 10478 10476 10474 10472 10470 10468 10468 10469 10470 10471 10474 10476 10478 10480 10481 10483 10489 10496 10503 10510 10520 10531 10541 10551 10561 10574 10584 10595 10610 10625 10640 10659 10669 10673 10687 10700 10705 10710 10716 10723 10732 10740 10753 10765 10770 10779 10791 10804 10818 10823 10828 10840 10846 10855 10864 10859
10608 10605 10602 10597 10592 10587 10582 10578 10573 10568 10562 10554 10548 10544 10541 10539 10535 10529 10521 10514 10510 10507 10502 10498 10496 10494 10490 10486 10482 10478 10474 10470 10467 10465 10463 10460 10458 10458 10459 10460 10460 10462 10464 10466 10470 10472 10473 10478 10486 10492 10499 10507 10517 10527 10537 10547 10559 10571 10581 10596 10612 10626 10644 10657 10662 10672 10680 10682 10687 10695 10707 10720 10730 10745 10755 10762 10774 10785 10794 10804 10808 10818 10831 10839 10850 10854 10844
10602 10599 10595 10591 10585 10580 10576 10571 10566 10561 10555 10549 10543 10538 10534 10530 10527 10523 10516 10510 10506 10502 10496 10490 10487 10485 10482 10478 10474 10471 10468 10463 10459 10456 10454 10450 10449 10449 10450 10450 10451 10452 10454 10457 10460 10463 10465 10468 10475 10482 10488 10495 10504 10514 10524 10533 10545 10558 10568 10583 10599 10614 10630 10643 10647 10654 10663 10667 10673 10685 10700 10713 10724 10735 10745 10754 10765 10774 10784 10793 10801 10816 10828 10835 10846 10844 10834
10597 10593 10589 10584 10579 10573 10568 10564 10558 10553 10547 10542 10537 10533 10528 10524 10520 10516 10511 10506 10503 10499 10494 10487 10481 10478 10474 10471 10467 10464 10461 10457 10453 10449 10446 10442 10440 10440 10440 10441 10442 10442 10444 10447 10449 10452 10455 10458 10463 10470 10477 10484 10492 10501 10510 10520 10532 10544 10555 10570 10587 10602 10616 10629 10634 10642 10654 10661 10668 10681 10696 10708 10717 10726 10736 10746 10754 10765 10776 10785 10800 10817 10823 10831 10841 10833 10826
10592 10587 10582 10578 10573 10567 10561 10556 10550 10545 10540 10535 10530 10527 10523 10518 10515 10512 10507 10501 10498 10495 10491 10485 10479 10474 10469 10465 10461 10456 10452 10449 10445 10442 10439 10435 10432 10431 10432 10433 10433 10433 10434 10437 10439 10442 10445 10448 10453 10460 10467 10473 10481 10489 10498 10508 10519 10532 10544 10558 10575 10590 10603 10616 10624 10633 10644 10651 10658 10672 10688 10700 10710 10718 10728 10737 10746 10758 10769 10783 10801 10809 10813 10827 10832 10820 10820
10587 10582 10576 10571 10566 10560 10554 10548 10543 10538 10533 10528 10524 10520 10516 10513 10510 10507 10504 10499 10494 10490 10486 10481 10476 10470 10465 10459 10454 10450 10445 10440 10436 10433 10431 10428 10425 10423 10424 10425 10425 10425 10426 10428 10430 10433 10437 10441 10445 10452 10459 10465 10471 10478 10487 10498 10508 10520 10534 10547 10564 10579 10592 10605 10615 10623 10632 10641 10649 10662 10677 10689 10699 10708 10719 10730 10741 10754 10768 10783 10794 10798 10808 10822 10817 10807 10816
10582 10576 10570 10564 10558 10553 10548 10542 10536 10531 10526 10522 10518 10514 10510 10507 10504 10502 10500 10495 10491 10486 10482 10477 10471 10466 10461 10455 10450 10444 10440 10435 10430 10425 10422 10420 10418 10416 10416 10417 10417 10418 10418 10419 10422 10425 10430 10434 10438 10444 10450 10456 10462 10469 10477 10488 10498 10510 10524 10538 10554 10569 10581 10595 10606 10613 10623 10632 10639 10652 10667 10677 10686 10698 10710 10723 10736 10749 10763 10774 10780 10789 10802 10805 10796 10798 10808
10577 10570 10564 10558 10552 10546 10541 10536 10530 10525 10520 10516 10512 10508 10505 10501 10498 10496 10493 10490 10486 10482 10478 10473 10468 10462 10456 10451 10446 10440 10435 10430 10425 10420 10416 10412 10411 10409 10409 10409 10410 10411 10411 10412 10415 10418 10422 10427 10431 10436 10442 10447 10454 10460 10469 10480 10490 10501 10514 10529 10544 10559 10571 10585 10599 10605 10612 10621 10629 10643 10658 10666 10675 10689 10703 10715 10728 10739 10749 10758 10766 10779 10788 10786 10785 10792 10798
10571 10565 10558 10551 10545 10540 10535 10530 10525 10520 10515 10511 10507 10503 10500 10496 10493 10491 10488 10485 10481 10477 10473 10469 10464 10459 10453 10447 10442 10436 10430 10425 10420 10416 10412 10407 10404 10403 10402 10402 10403 10404 10405 10406 10408 10411 10415 10419 10424 10429 10434 10440 10447 10453 10461 10472 10483 10493 10506 10520 10536 10551 10562 10577 10590 10595 10599 10609 10620 10635 10648 10654 10664 10680 10693 10704 10716 10725 10734 10746 10759 10771 10778 10776 10777 10783 10789
10565 10558 10552 10545 10540 10535 10530 10524 10519 10515 10510 10507 10503 10499 10496 10493 10489 10487 10484 10480 10477 10473 10469 10465 10460 10455 10449 10443 10438 10432 10427 10421 10415 10410 10407 10403 10399 10397 10396 10396 10397 10398 10399 10401 10403 10405 10408 10412 10417 10423 10427 10433 10441 10447 10455 10466 10476 10486 10498 10512 10529 10543 10554 10568 10580 10584 10588 10599 10613 10626 10636 10641 10653 10671 10684 10695 10706 10714 10726 10741 10754 10764 10767 10766 10769 10777 10785
10559 10552 10546 10540 10535 10530 10525 10519 10514 10509 10506 10502 10499 10495 10492 10489 10486 10483 10480 10477 10473 10469 10465 10461 10457 10452 10446 10441 10435 10429 10423 10417 10411 10406 10402 10398 10394 10392 10390 10391 10392 10393 10394 10396 10397 10400 10403 10407 10412 10417 10422 10428 10436 10442 10450 10460 10470 10479 10491 10506 10523 10536 10545 10558 10570 10575 10579 10591 10605 10615 10621 10629 10646 10665 10678 10688 10698 10708 10721 10735 10746 10753 10756 10758 10765 10774 10782
10553 10546 10540 10535 10530 10525 10520 10514 10509 10505 10501 10498 10495 10492 10489 10486 10483 10481 10478 10474 10470 10466 10462 10457 10452 10448 10444 10439 10433 10426 10420 10413 10407 10402 10398 10394 10390 10388 10386 10386 10387 10388 10389 10391 10393 10395 10398 10402 10407 10412 10417 10423 10429 10436 10444 10453 10463 10473 10485 10501 10517 10527 10537 10550 10562 10566 10570 10583 10595 10601 10609 10624 10643 10659 10671 10682 10692 10702 10715 10728 10737 10744 10747 10752 10762 10768 10774
10548 10541 10535 10529 10524 10520 10515 10510 10505 10501 10497 10494 10491 10489 10486 10483 10481 10478 10475 10472 10468 10464 10459 10454 10449 10445 10441 10436 10430 10423 10416 10410 10403 10398 10394 10390 10386 10384 10382 10382 10383 10384 10385 10386 10388 10391 10394 10397 10401 10406 10411 10415 10421 10429 10437 10446 10456 10466 10479 10495 10510 10519 10529 10543 10554 10557 10562 10574 10584 10590 10603 10623 10639 10652 10665 10677 10685 10696 10708 10719 10726 10732 10738 10746 10755 10761 10767
10543 10536 10530 10524 10519 10515 10511 10506 10502 10498 10494 10491 10488 10486 10483 10481 10478 10476 10473 10469 10466 10462 10457 10452 10447 10441 10437 10433 10428 10421 10414 10407 10401 10396 10391 10387 10383 10380 10379 10378 10379 10380 10380 10382 10384 10386 10389 10392 10395 10399 10404 10409 10414 10422 10430 10440 10449 10458 10471 10488 10501 10510 10522 10536 10545 10548 10554 10565 10574 10584 10600 10619 10633 10646 10659 10669 10679 10690 10700 10708 10715 10722 10730 10739 10748 10754 10761
10538 10532 10526 10520 10515 10511 10507 10503 10498 10495 10491 10487 10485 10483 10480 10478 10476 10473 10470 10467 10463 10459 10455 10450 10445 10439 10434 10429 10425 10419 10412 10405 10399 10393 10389 10385 10381 10378 10376 10375 10376 10376 10377 10378 10379 10381 10384 10387 10390 10395 10399 10403 10410 10417 10425 10433 10440 10450 10464 10480 10492 10502 10515 10527 10535 10540 10547 10557 10567 10578 10595 10614 10630 10642 10653 10663 10675 10684 10691 10698 10707 10715 10723 10732 10741 10748 10755
10533 10528 10522 10517 10512 10508 10503 10499 10495 10491 10488 10484 10482 10479 10477 10475 10473 10471 10468 10465 10461 10458 10453 10449 10444 10438 10432 10427 10422 10418 10412 10405 10397 10391 10387 10383 10380 10377 10375 10373 10373 10373 10374 10375 10376 10378 10380 10383 10387 10390 10394 10400 10406 10413 10420 10426 10435 10446 10460 10473 10484 10495 10508 10519 10527 10534 10541 10550 10561 10574 10593 10612 10625 10635 10645 10657 10667 10674 10681 10689 10698 10707 10715 10725 10734 10741 10747
10530 10524 10518 10513 10508 10504 10500 10496 10492 10488 10485 10482 10479 10476 10474 10473 10471 10469 10466 10463 10460 10456 10452 10447 10442 10437 10431 10426 10420 10416 10411 10405 10398 10391 10386 10381 10378 10375 10373 10372 10371 10372 10372 10373 10374 10375 10378 10380 10383 10387 10392 10397 10403 10409 10415 10422 10432 10444 10456 10468 10479 10489 10500 10511 10520 10527 10534 10544 10557 10572 10590 10607 10619 10629 10640 10649 10656 10663 10670 10678 10687 10697 10708 10718 10728 10734 10740
10526 10520 10515 10510 10505 10500 10497 10493 10489 10485 10482 10479 10476 10474 10472 10470 10468 10466 10464 10461 10458 10455 10451 10446 10441 10436 10431 10425 10420 10414 10410 10405 10398 10391 10386 10381 10378 10375 10373 10371 10370 10370 10371 10371 10372 10373 10375 10378 10381 10385 10390 10396 10402 10407 10413 10421 10431 10442 10453 10463 10472 10482 10493 10504 10514 10521 10529 10540 10553 10568 10587 10603 10613 10623 10632 10639 10646 10653 10659 10666 10678 10690 10701 10713 10722 10728 10734
10523 10517 10511 10506 10502 10497 10494 10490 10486 10483 10480 10477 10474 10472 10470 10468 10466 10464 10461 10459 10456 10453 10449 10445 10441 10436 10431 10426 10420 10414 10409 10404 10399 10393 10387 10382 10378 10375 10372 10371 10370 10370 10370 10370 10371 10372 10374 10377 10381 10386 10390 10396 10401 10406 10413 10421 10430 10440 10450 10457 10464 10474 10486 10499 10509 10517 10526 10537 10550 10566 10584 10597 10604 10614 10624 10631 10638 10645 10650 10659 10673 10684 10695 10707 10717 10723 10730
10520 10514 10509 10503 10499 10495 10491 10487 10484 10480 10477 10474 10471 10469 10468 10466 10464 10462 10460 10457 10454 10451 10447 10444 10440 10435 10431 10426 10420 10414 10408 10403 10398 10393 10388 10383 10379 10376 10373 10372 10371 10370 10370 10370 10371 10372 10375 10378 10382 10386 10390 10394 10399 10404 10411 10419 10428 10438 10446 10452 10459 10470 10483 10496 10505 10513 10522 10533 10545 10561 10578 10589 10597 10609 10618 10623 10630 10639 10647 10658 10670 10680 10690 10701 10711 10718 10725
10516 10511 10506 10501 10496 10493 10489 10485 10482 10478 10475 10472 10469 10467 10466 10464 10462 10460 10458 10455 10452 10449 10446 10443 10439 10435 10430 10425 10420 10415 10408 10403 10399 10395 10390 10385 10381 10377 10374 10373 10371 10370 10370 10371 10372 10373 10376 10380 10383 10386 10390 10394 10398 10404 10411 10418 10427 10436 10442 10447 10456 10468 10480 10491 10500 10507 10517 10528 10540 10556 10573 10583 10592 10604 10611 10615 10623 10633 10643 10654 10665 10674 10685 10696 10705 10713 10721
10513 10508 10504 10498 10494 10490 10487 10483 10480 10476 10473 10471 10468 10466 10464 10462 10460 10458 10456 10453 10451 10448 10445 10442 10438 10434 10430 10425 10420 10415 10410 10404 10400 10395 10391 10387 10383 10379 10376 10374 10373 10372 10371 10372 10373 10375 10378 10380 10383 10387 10390 10394 10398 10403 10410 10418 10426 10433 10438 10443 10453 10464 10474 10485 10494 10502 10512 10524 10537 10555 10569 10577 10586 10598 10605 10611 10619 10628 10636 10648 10658 10667 10678 10690 10701 10709 10716
10510 10506 10502 10497 10492 10488 10484 10481 10478 10475 10472 10469 10467 10465 10463 10461 10459 10457 10454 10452 10449 10446 10443 10440 10437 10434 10430 10426 10421 10416 10411 10406 10401 10396 10392 10388 10385 10382 10379 10376 10374 10373 10373 10373 10374 10375 10378 10380 10383 10386 10389 10393 10398 10403 10410 10418 10425 10431 10435 10441 10450 10460 10470 10481 10489 10497 10508 10520 10535 10551 10562 10570 10581 10592 10599 10606 10615 10622 10631 10642 10653 10661 10673 10685 10696 10704 10710
10508 10503 10499 10495 10490 10486 10482 10479 10476 10473 10470 10467 10465 10463 10461 10459 10457 10455 10453 10450 10448 10445 10442 10439 10436 10433 10430 10427 10422 10418 10413 10408 10403 10398 10394 10390 10386 10383 10380 10378 10376 10375 10374 10374 10375 10376 10377 10379 10382 10385 10388 10392 10398 10403 10410 10417 10424 10429 10434 10440 10448 10457 10467 10476 10485 10493 10504 10516 10530 10545 10556 10565 10576 10586 10593 10601 10611 10618 10626 10636 10647 10657 10668 10679 10689 10697 10705
10506 10501 10497 10494 10489 10485 10481 10477 10474 10471 10469 10466 10463 10461 10459 10457 10455 10453 10451 10449 10447 10444 10441 10438 10436 10433 10429 10426 10423 10420 10415 10410 10405 10400 10396 10392 10388 10385 10382 10380 10379 10377 10376 10376 10376 10377 10378 10378 10380 10383 10387 10391 10397 10403 10410 10416 10423 10428 10433 10440 10448 10456 10464 10473 10481 10490 10501 10512 10526 10541 10552 10560 10570 10579 10586 10596 10606 10614 10622 10631 10642 10652 10662 10673 10683 10691 10700
10505 10500 10495 10492 10488 10484 10480 10476 10472 10470 10467 10464 10461 10459 10457 10455 10453 10452 10450 10448 10446 10443 10440 10438 10435 10432 10429 10426 10423 10420 10416 10412 10407 10403 10398 10394 10390 10387 10384 10382 10380 10379 10378 10377 10377 10378 10378 10379 10380 10383 10387 10391 10396 10402 10409 10416 10422 10428 10433 10439 10447 10455 10462 10470 10477 10487 10498 10510 10523 10537 10547 10555 10566 10576 10583 10592 10603 10611 10618 10627 10637 10648 10658 10668 10678 10687 10695
10504 10499 10494 10490 10486 10483 10479 10475 10472 10468 10466 10463 10460 10457 10455 10453 10451 10450 10449 10446 10444 10441 10439 10436 10433 10431 10428 10425 10422 10419 10415 10412 10409 10405 10401 10397 10393 10389 10386 10384 10383 10381 10380 10379 10379 10379 10379 10380 10381 10384 10387 10392 10397 10402 10408 10415 10422 10428 10432 10438 10446 10454 10460 10467 10475 10486 10497 10509 10521 10533 10542 10551 10562 10573 10582 10591 10601 10608 10615 10624 10634 10644 10653 10662 10672 10681 10690
10503 10498 10493 10489 10485 10482 10478 10475 10471 10468 10465 10462 10459 10457 10454 10451 10449 10448 10446 10444 10441 10439 10437 10434 10432 10429 10427 10424 10421 10418 10415 10412 10409 10406 10403 10399 10395 10391 10389 10387 10385 10384 10382 10381 10380 10380 10381 10382 10383 10385 10388 10392 10397 10403 10408 10415 10422 10427 10431 10437 10444 10451 10458 10465 10474 10484 10496 10507 10519 10530 10538 10548 10560 10570 10579 10589 10598 10606 10613 10621 10630 10640 10649 10658 10667 10675 10683
10502 10497 10493 10489 10485 10481 10478 10474 10471 10468 10465 10462 10459 10456 10453 10451 10448 10446 10444 10442 10439 10437 10435 10433 10430 10428 10425 10423 10420 10417 10415 10412 10410 10407 10404 10401 10398 10395 10392 10390 10388 10386 10384 10383 10382 10382 10382 10383 10385 10387 10389 10393 10397 10403 10408 10414 10420 10424 10428 10434 10442 10448 10456 10464 10472 10483 10494 10505 10517 10528 10535 10545 10558 10567 10573 10582 10593 10601 10609 10618 10626 10636 10645 10654 10661 10668 10676
10502 10497 10492 10488 10484 10481 10477 10474 10471 10468 10465 10462 10459 10456 10453 10450 10448 10445 10443 10440 10438 10436 10433 10431 10429 10426 10424 10422 10420 10418 10415 10413 10411 10409 10406 10404 10401 10398 10396 10393 10390 10388 10386 10385 10384 10384 10384 10385 10386 10388 10390 10393 10397 10402 10407 10413 10419 10424 10427 10432 10439 10446 10454 10462 10471 10481 10492 10503 10515 10524 10532 10542 10554 10562 10568 10577 10587 10595 10604 10613 10621 10631 10641 10649 10656 10664 10672
10502 10497 10493 10489 10484 10480 10477 10473 10470 10467 10464 10461 10459 10456 10453 10450 10447 10445 10442 10440 10437 10435 10432 10430 10428 10425 10423 10421 10420 10418 10416 10415 10413 10411 10409 10407 10404 10401 10398 10395 10392 10390 10389 10388 10387 10386 10386 10386 10388 10389 10391 10393 10397 10402 10407 10413 10420 10425 10428 10432 10438 10445 10452 10461 10469 10479 10489 10500 10510 10519 10528 10538 10550 10558 10565 10574 10582 10590 10598 10607 10615 10624 10634 10643 10651 10660 10668
10502 10498 10494 10489 10484 10480 10476 10473 10469 10466 10463 10460 10458 10455 10452 10450 10447 10444 10442 10439 10437 10434 10432 10429 10427 10424 10422 10420 10419 10418 10416 10415 10414 10412 10410 10408 10405 10403 10400 10397 10395 10393 10391 10390 10389 10388 10388 10388 10389 10390 10392 10394 10397 10402 10407 10413 10420 10426 10430 10433 10438 10445 10452 10459 10468 10477 10487 10497 10506 10515 10524 10535 10546 10554 10561 10569 10578 10585 10593 10602 10610 10618 10626 10635 10645 10655 10663
10502 10498 10493 10488 10483 10479 10475 10472 10469 10466 10463 10461 10458 10456 10453 10450 10447 10445 10442 10439 10437 10434 10432 10429 10426 10423 10421 10419 10418 10417 10415 10414 10413 10412 10410 10408 10406 10404 10402 10400 10397 10395 10394 10392 10391 10391 10390 10390 10390 10391 10394 10396 10398 10402 10406 10411 10418 10425 10430 10434 10439 10445 10452 10459 10467 10476 10485 10494 10504 10512 10521 10531 10541 10549 10556 10565 10573 10582 10589 10597 10605 10612 10620 10628 10638 10647 10655
10502 10497 10493 10488 10485 10482 10478 10475 10472 10469 10466 10463 10460 10457 10454 10451 10448 10445 10442 10439 10437 10434 10432 10429 10426 10423 10421 10419 10417 10416 10414 10413 10412 10411 10410 10408 10407 10405 10403 10401 10399 10397 10396 10395 10394 10393 10392 10392 10392 10393 10394 10397 10400 10403 10406 10410 10416 10423 10429 10434 10439 10445 10451 10458 10465 10474 10483 10492 10501 10509 10517 10527 10536 10544 10552 10561 10570 10578 10586 10593 10601 10608 10614 10621 10629 10636 10645
10503 10498 10494 10490 10487 10484 10480 10477 10473 10470 10467 10464 10460 10457 10454 10451 10448 10445 10442 10440 10437 10434 10432 10429 10426 10424 10422 10419 10417 10416 10414 10413 10412 10411 10410 10409 10407 10406 10404 10402 10401 10399 10398 10397 10396 10395 10394 10394 10394 10394 10395 10398 10401 10404 10407 10410 10414 10420 10427 10433 10438 10444 10451 10457 10464 10472 10480 10489 10496 10504 10513 10522 10532 10541 10549 10557 10565 10574 10582 10589 10596 10603 10610 10616 10622 10629 10636
10504 10500 10496 10492 10488 10484 10481 10477 10474 10470 10467 10464 10461 10458 10455 10452 10449 10446 10443 10440 10438 10435 10432 10429 10427 10424 10422 10420 10418 10416 10414 10412 10411 10411 10410 10409 10408 10407 10405 10404 10402 10401 10400 10399 10398 10397 10396 10396 10396 10396 10397 10399 10401 10404 10407 10410 10413 10418 10424 10431 10437 10443 10449 10455 10462 10469 10477 10485 10492 10499 10507 10517 10527 10537 10545 10553 10561 10569 10576 10583 10591 10598 10604 10610 10616 10622 10629
10506 10502 10497 10493 10489 10486 10482 10478 10475 10472 10469 10466 10463 10460 10457 10453 10450 10446 10443 10440 10437 10435 10432 10430 10428 10425 10422 10420 10418 10416 10414 10412 10411 10410 10409 10409 10408 10407 10406 10405 10403 10402 10401 10400 10399 10398 10398 10397 10397 10397 10398 10399 10401 10403 10407 10410 10413 10416 10421 10427 10434 10440 10447 10453 10459 10466 10473 10480 10487 10493 10501 10510 10520 10530 10540 10548 10556 10562 10568 10576 10584 10591 10597 10603 10608 10614 10620
10507 10503 10499 10495 10491 10487 10484 10480 10477 10474 10471 10468 10465 10461 10458 10454 10450 10446 10443 10440 10438 10435 10433 10430 10428 10426 10423 10421 10418 10416 10414 10412 10410 10409 10408 10408 10407 10406 10406 10405 10404 10403 10401 10400 10400 10399 10399 10398 10398 10398 10398 10399 10400 10402 10405 10409 10412 10415 10419 10425 10431 10437 10443 10449 10456 10462 10469 10475 10482 10488 10494 10502 10512 10522 10531 10540 10547 10554 10560 10567 10574 10581 10588 10595 10601 10606 10612
10509 10504 10500 10496 10493 10489 10486 10482 10479 10476 10472 10469 10466 10462 10458 10454 10451 10447 10444 10441 10438 10436 10433 10431 10428 10426 10424 10421 10419 10416 10414 10412 10410 10409 10408 10406 10406 10405 10405 10404 10404 10403 10402 10401 10400 10399 10399 10399 10399 10399 10399 10399 10400 10401 10404 10407 10411 10415 10418 10422 10427 10433 10440 10446 10452 10458 10464 10470 10477 10484 10490 10496 10504 10513 10521 10529 10536 10543 10550 10556 10563 10570 10577 10585 10592 10599 10604
10510 10506 10503 10499 10495 10491 10488 10484 10481 10478 10474 10471 10467 10462 10458 10455 10452 10448 10445 10442 10439 10437 10434 10431 10429 10426 10424 10421 10419 10416 10414 10412 10410 10408 10406 10405 10404 10404 10403 10403 10402 10402 10401 10400 10400 10399 10399 10398 10399 10399 10399 10399 10400 10401 10402 10405 10408 10413 10416 10419 10423 10428 10435 10441 10448 10455 10461 10466 10472 10478 10486 10492 10498 10506 10513 10520 10526 10532 10538 10545 10551 10558 10564 10571 10579 10587 10594
10513 10509 10505 10500 10497 10493 10489 10486 10483 10480 10477 10473 10469 10464 10460 10457 10453 10449 10446 10444 10441 10438 10435 10432 10429 10427 10424 10421 10419 10416 10414 10412 10410 10408 10406 10404 10403 10402 10402 10401 10401 10400 10400 10399 10398 10398 10397 10397 10397 10398 10398 10399 10399 10400 10401 10402 10405 10409 10414 10417 10420 10423 10428 10434 10442 10449 10456 10461 10467 10472 10478 10484 10491 10498 10505 10511 10517 10523 10529 10535 10540 10546 10552 10558 10566 10574 10581
10514 10510 10506 10502 10499 10496 10492 10489 10486 10482 10478 10474 10470 10466 10462 10458 10455 10451 10448 10446 10443 10440 10437 10434 10431 10428 10425 10422 10419 10416 10414 10412 10410 10408 10405 10403 10402 10401 10400 10399 10399 10399 10398 10397 10397 10396 10396 10396 10396 10395 10396 10397 10398 10399 10400 10401 10403 10406 10410 10415 10418 10420 10422 10426 10433 10440 10447 10454 10460 10466 10471 10477 10483 10489 10496 10502 10508 10514 10520 10526 10532 10537 10542 10548 10554 10560 10567
10516 10512 10508 10505 10502 10498 10494 10491 10487 10483 10479 10475 10470 10467 10463 10460 10456 10453 10451 10448 10445 10441 10438 10435 10431 10428 10424 10421 10418 10416 10414 10412 10410 10408 10405 10403 10401 10400 10399 10398 10397 10396 10396 10395 10395 10394 10394 10394 10394 10393 10393 10394 10395 10396 10398 10400 10401 10403 10406 10410 10416 10419 10420 10421 10425 10430 10437 10443 10450 10457 10462 10468 10474 10480 10488 10494 10501 10507 10512 10518 10523 10529 10533 10538 10543 10548 10554
10518 10514 10510 10506 10503 10499 10495 10492 10488 10484 10480 10476 10472 10468 10465 10461 10457 10454 10451 10448 10445 10442 10439 10435 10432 10428 10425 10421 10418 10416 10413 10411 10409 10406 10404 10402 10400 10399 10397 10396 10395 10394 10393 10393 10392 10392 10391 10391 10391 10391 10392 10392 10393 10394 10395 10397 10399 10401 10403 10406 10410 10415 10419 10421 10422 10424 10427 10432 10438 10445 10451 10457 10462 10468 10475 10483 10490 10497 10502 10508 10514 10519 10524 10528 10533 10537 10543
10519 10515 10511 10508 10504 10500 10497 10493 10489 10485 10481 10478 10474 10470 10466 10462 10459 10455 10452 10449 10445 10442 10439 10435 10432 10428 10425 10421 10418 10415 10412 10409 10407 10404 10402 10400 10399 10397 10395 10394 10393 10392 10391 10390 10390 10389 10389 10388 10388 10389 10389 10390 10390 10391 10392 10394 10395 10398 10400 10402 10405 10408 10413 10417 10421 10423 10425 10427 10430 10434 10440 10447 10454 10460 10466 10473 10479 10486 10492 10497 10503 10508 10514 10518 10523 10528 10533
10520 10516 10512 10509 10505 10502 10498 10494 10490 10487 10483 10479 10475 10471 10467 10463 10460 10456 10452 10449 10445 10441 10437 10433 10430 10427 10424 10420 10417 10413 10410 10407 10405 10403 10400 10398 10396 10394 10393 10391 10390 10389 10388 10387 10386 10386 10386 10385 10385 10386 10387 10387 10388 10389 10390 10391 10392 10394 10397 10399 10402 10404 10407 10411 10415 10419 10423 10426 10429 10431 10433 10438 10443 10450 10457 10463 10470 10476 10482 10488 10493 10498 10503 10508 10513 10518 10523
10520 10516 10513 10509 10506 10503 10499 10496 10492 10488 10483 10479 10475 10471 10468 10464 10460 10456 10452 10448 10444 10440 10435 10431 10428 10424 10421 10418 10415 10411 10408 10405 10403 10401 10398 10395 10393 10391 10389 10388 10387 10386 10385 10384 10383 10383 10382 10382 10382 10383 10383 10384 10385 10386 10387 10388 10389 10391 10393 10395 10397 10400 10402 10405 10409 10412 10417 10421 10426 10429 10432 10435 10438 10442 10446 10452 10457 10464 10471 10477 10484 10489 10494 10499 10503 10508 10513
10521 10517 10514 10510 10506 10503 10500 10496 10492 10488 10484 10480 10476 10472 10468 10464 10460 10455 10450 10446 10442 10437 10433 10429 10425 10421 10418 10415 10412 10409 10406 10403 10400 10398 10395 10393 10391 10388 10386 10384 10383 10382 10381 10380 10379 10379 10378 10378 10378 10379 10380 10381 10382 10383 10383 10384 10385 10387 10389 10391 10393 10395 10397 10400 10403 10406 10410 10413 10418 10422 10427 10431 10435 10438 10441 10444 10449 10453 10459 10465 10471 10478 10484 10489 10493 10497 10501
10522 10519 10515 10511 10507 10503 10499 10495 10492 10489 10484 10480 10475 10471 10467 10463 10457 10452 10447 10443 10438 10434 10431 10427 10423 10419 10416 10413 10410 10407 10403 10399 10396 10393 10391 10389 10387 10385 10383 10381 10380 10378 10376 10376 10375 10375 10374 10374 10374 10374 10375 10376 10377 10378 10379 10380 10381 10383 10384 10386 10388 10390 10392 10395 10397 10400 10403 10406 10410 10414 10419 10423 10428 10432 10435 10439 10443 10447 10451 10456 10460 10466 10472 10477 10482 10486 10491
10521 10518 10515 10512 10508 10504 10499 10495 10491 10487 10483 10478 10474 10469 10464 10459 10454 10449 10444 10439 10435 10431 10428 10424 10421 10417 10414 10410 10407 10403 10398 10395 10391 10388 10385 10383 10381 10379 10378 10377 10375 10374 10372 10371 10371 10370 10370 10369 10370 10370 10370 10370 10372 10373 10374 10375 10376 10378 10379 10381 10383 10385 10387 10389 10392 10394 10397 10400 10403 10407 10411 10415 10419 10424 10427 10431 10435 10439 10445 10450 10454 10458 10462 10466 10471 10476 10481
10519 10516 10512 10509 10506 10503 10499 10494 10490 10485 10480 10476 10471 10466 10461 10456 10451 10446 10441 10436 10432 10427 10423 10420 10416 10412 10408 10405 10401 10397 10394 10390 10387 10383 10380 10378 10376 10374 10373 10372 10370 10369 10367 10367 10366 10366 10365 10364 10365 10365 10365 10365 10366 10367 10368 10370 10371 10372 10374 10376 10378 10380 10382 10384 10386 10388 10391 10393 10396 10399 10403 10407 10411 10415 10419 10423 10427 10431 10436 10441 10446 10451 10454 10458 10461 10465 10469
10519 10515 10511 10507 10504 10501 10497 10493 10489 10484 10479 10474 10469 10464 10459 10455 10449 10444 10439 10435 10430 10425 10421 10416 10412 10408 10403 10400 10397 10393 10389 10386 10382 10379 10375 10372 10370 10368 10367 10366 10365 10364 10363 10362 10361 10361 10360 10360 10360 10360 10360 10360 10361 10361 10362 10364 10365 10367 10368 10370 10373 10375 10377 10379 10381 10383 10385 10387 10390 10393 10396 10399 10402 10406 10410 10414 10418 10422 10426 10431 10436 10441 10445 10449 10453 10456 10459